Weather History for PAOR - November, 2012

Change the Weather History Date:

Thursday, November 1, 2012

  Actual Average Record
Temperature  
Mean Temperature -1 °F -  
Max Temperature 10 °F 14 °F 40 °F (1954)
Min Temperature -11 °F -2 °F -40 °F (1975)
Degree Days  
Heating Degree Days 66    
Moisture  
Dew Point -5 °F    
Average Humidity 81    
Maximum Humidity 88    
Minimum Humidity 73    
Precipitation  
Precipitation 0.00 in - - ()
Snow  
Snow 0.00 in - - ()
Snow Depth 6.00 in    
Sea Level Pressure  
Sea Level Pressure 30.18 in    
Wind  
Wind Speed 1 mph (ESE)    
Max Wind Speed 6 mph    
Max Gust Speed -    
Visibility 9 miles    
Events Snow    
Averages and records for this station are not official NWS values.
T = Trace of Precipitation, MM = Missing Value Source: NWS Daily Summary

Daily Weather History Graph

Daily Weather History Graph

Search for Another Location

Airport or City:

Trip Planner

Search our weather history database for the weather conditions in past years. The results will help you decide how hot, cold, wet, or windy it might be!

Date:

Astronomy

Nov. 01, 2012 Rise Set
Actual Time 9:06 AM AKDT 5:15 PM AKDT
Civil Twilight 8:15 AM AKDT 6:05 PM AKDT
Nautical Twilight 7:20 AM AKDT 7:00 PM AKDT
Astronomical Twilight 6:27 AM AKDT 7:53 PM AKDT
Moon 6:27 PM AKDT (11/1) 12:38 PM AKDT (11/1)
Length of Visible Light 9h 50m
Length of Day
8h 08m
Waning Gibbous, 92% of the Moon is Illuminated
Nov 1
Waning Gibbous
Nov 6
Last Quarter
Nov 13
New
Nov 20
First Quarter
Nov 28
Full

Hourly Weather History & Observations

Time (AKDT) Temp. Windchill Dew Point Humidity Pressure Visibility Wind Dir Wind Speed Gust Speed Precip Events Conditions
12:53 AM -6.0 °F -14.7 °F -11.0 °F 79% 30.06 in 8.0 mi East 3.5 mph - N/A   Mostly Cloudy
1:53 AM -6.0 °F -14.7 °F -9.9 °F 83% 30.08 in 5.0 mi East 3.5 mph - 0.00 in Snow Light Snow
2:53 AM -8.0 °F - -11.9 °F 83% 30.10 in 10.0 mi Calm Calm - 0.00 in   Mostly Cloudy
3:53 AM -9.0 °F - -13.0 °F 83% 30.12 in 10.0 mi Calm Calm - N/A   Mostly Cloudy
4:53 AM -9.9 °F - -15.0 °F 78% 30.14 in 10.0 mi Calm Calm - N/A   Mostly Cloudy
5:53 AM -9.0 °F - -13.0 °F 83% 30.14 in 10.0 mi Calm Calm - N/A   Mostly Cloudy
6:53 AM -11.9 °F - -17.0 °F 78% 30.16 in 10.0 mi Calm Calm - N/A   Mostly Cloudy
7:53 AM -9.9 °F - -15.0 °F 78% 30.17 in 10.0 mi Calm Calm - N/A   Mostly Cloudy
8:18 AM -7.6 °F - -13.0 °F 77% 29.99 in 8.0 mi Calm Calm - 0.00 in Snow Light Snow
8:53 AM -5.1 °F - -9.0 °F 83% 30.19 in 6.0 mi Calm Calm - 0.00 in Snow Light Snow
9:53 AM -0.9 °F - -4.0 °F 87% 30.21 in 6.0 mi Calm Calm - 0.00 in Snow Light Snow
10:53 AM 1.9 °F - -0.9 °F 88% 30.23 in 5.0 mi Calm Calm - 0.00 in Snow Light Snow
11:53 AM 7.0 °F 0.1 °F 3.0 °F 84% 30.24 in 7.0 mi ESE 3.5 mph - 0.00 in Snow Light Snow
12:53 PM 7.0 °F -1.7 °F 3.0 °F 84% 30.24 in 8.0 mi SE 4.6 mph - 0.00 in Snow Light Snow
1:53 PM 8.1 °F -2.0 °F 1.9 °F 76% 30.24 in 9.0 mi SE 5.8 mph - 0.00 in Snow Light Snow
2:53 PM 9.0 °F - 1.9 °F 73% 30.24 in 10.0 mi Calm Calm - 0.00 in   Mostly Cloudy
3:53 PM 9.0 °F 0.6 °F 3.0 °F 77% 30.25 in 10.0 mi SE 4.6 mph - N/A   Mostly Cloudy
4:53 PM 7.0 °F - 1.9 °F 80% 30.24 in 10.0 mi Calm Calm - N/A   Mostly Cloudy
5:53 PM 5.0 °F - -0.0 °F 80% 30.25 in 10.0 mi Calm Calm - N/A   Overcast
6:53 PM 3.9 °F - -0.0 °F 84% 30.25 in 10.0 mi Calm Calm - N/A   Overcast
7:53 PM 3.9 °F - -0.0 °F 84% 30.25 in 10.0 mi Calm Calm - N/A   Overcast
8:53 PM 3.9 °F - -0.0 °F 84% 30.22 in 10.0 mi Calm Calm - N/A   Overcast
9:53 PM 3.0 °F - -0.9 °F 84% 30.21 in 10.0 mi Calm Calm - N/A   Overcast
10:53 PM 3.0 °F - -0.9 °F 84% 30.19 in 10.0 mi Calm Calm - N/A   Overcast
11:53 PM 1.9 °F - -2.0 °F 83% 30.17 in 9.0 mi Calm Calm - 0.00 in Snow Light Snow